Regional Weather Roundup
Issued by NWS New Orleans/Baton Rouge, LA

Home | Current Version | Previous Version | Text Only | Print | Product List | Glossary On
Versions: 1 2 3 4 5 6 7 8 9 10 11 12 13 14 15 16 17 18 19 20 21 22 23 24 25 26 27 28 29 30 31 32 33 34 35 36 37 38 39 40 41 42 43 44 45 46 47 48 49 50
998
ASUS44 KLIX 030413
RWRLIX
NEW ORLEANS REGIONAL WEATHER ROUNDUP
NATIONAL WEATHER SERVICE NEW ORLEANS LA
1000 PM CST FRI DEC 02 2016

NOTE: "FAIR" INDICATES FEW OR NO CLOUDS BELOW 12,000 FEET WITH NO
      SIGNIFICANT WEATHER AND/OR OBSTRUCTIONS TO VISIBILITY.
      SKY/WX - SKY CONDITION AND SIGNIFICANT WEATHER.
      TMP - AIR TEMPERATURE.     DP    - DEWPOINT TEMPERATURE.
      RH  - RELATIVE HUMIDITY.   PRES  - PRESSURE.
      HI  - HEAT INDEX.          WCI   - WIND CHILL INDEX.

*  THESE STATIONS ARE NOT NWS OR FAA STATIONS AND ARE NOT UNDER
   NWS QUALITY CONTROL.

LAZ038-040-048-061>063-065>067-069-030500-
SOUTHEAST LOUISIANA

CITY           SKY/WX    TMP DP  RH WIND       PRES   REMARKS
N.O. AUDUBON   NOT AVBL
N.O. INTL ARPT LGT RAIN  61  47  59 E12       30.19S
N.O. LAKEFRONT CLOUDY    61  46  57 E17       30.20S
N.O. DOWNTOWN* LGT RAIN  61  45  55 NE8       30.20S
RESERVE*       CLOUDY    62  43  49 E10       30.19S
SLIDELL        CLOUDY    56  42  59 E7        30.20F
BATON ROUGE    CLOUDY    53  47  79 NE9       30.18F
BOOTHVILLE     CLOUDY    62  51  67 E10       30.19S
BELLE CHASSE   LGT RAIN  62  43  49 E12       30.19S
BOGALUSA*      CLOUDY    55  45  70 CALM      30.24F
GALLIANO*      CLOUDY    61  47  59 NE8       30.18R
NEW ROADS*     CLOUDY    53  45  73 E10       30.18F
GONZALES*      CLOUDY    58  44  60 NE3       30.16F
HAMMOND*       CLOUDY    52  45  76 E5        30.21R
HOUMA*         CLOUDY    59  46  60 E13G22    30.18R
PORT FOURCHON* CLOUDY    66  54  63 E13G21    30.15S

$$

MSZ070-080>082-030500-
SOUTHERN MISSISSIPPI

CITY           SKY/WX    TMP DP  RH WIND       PRES   REMARKS
MCCOMB         LGT RAIN  53  38  56 E3        30.21F
GULFPORT       CLOUDY    58  38  47 NE7       30.23R
BILOXI         LGT RAIN  57  39  51 NE8       30.23R
PASCAGOULA     CLOUDY    56  38  50 N3        30.24R

$$

COASTAL OBSERVATIONS
LAKE AND NEARSHORE STATIONS

STATION/POSITION TIME  TEMP    WIND        PRES    WAVE
                       AIR SEA DIR/SP/G            HT/PER
                 (UTC) (F)     (DEG/KT/KT) (MB)    (FT/S)
PASCAGOULA       0348   59      30/  8/ 10 1023.1
WAVELAND YACHT   0348   58 62   50/  9/ 12 1023.4
GRAND ISLE       0348   65 65   80/ 12/ 21 1021.7
SOUTHWEST PASS   0348           80/ 23/ 29   N/A
NEW CANAL        0348   62 63   70/ 19/ 20 1021.2
SHELL BEACH      0348   62 63   60/ 14/ 18 1022.3

OFFSHORE STATIONS

STATION/POSITION TIME  TEMP    WIND        PRES    WAVE
                       AIR SEA DIR/SP/G            HT/PER
                 (UTC) (F)     (DEG/KT/KT) (MB)    (FT/S)
64 S DAUPHIN ISL 0350   70 76   70/ 17/ 25 1021.6

$$





USA.gov is the U.S. government's official web portal to all federal, state and local government web resources and services.